Hourly Data Report for October 17, 2017

All times are specified in Local Standard Time (LST). Add 1 hour to adjust for Daylight Saving Time where and when it is observed.

POWELL RIVER
BRITISH COLUMBIA

49°50'04.400" N
124°29'48.500" W
125.00 m
1046392
71720
VOP

Download Data

Hourly Data (October 2017)
Hourly Data Report for October 17, 2017
Temp Definition
°C
Dew Point Temp Definition
°C
Rel Hum Definition
%
Wind Dir Definition
10's deg

Wind Spd Definition
km/h
Visibility Definition
km
Stn Press Definition
kPa
Hmdx Definition


Wind Chill Definition


Weather Definition


TIME
00:00 11.1 10.0 93 LegendMM LegendMM   99.39     LegendNANA
01:00 11.2 10.3 94 LegendMM LegendMM   99.28     LegendNANA
02:00 10.9 10.1 95 LegendMM LegendMM   99.16     LegendNANA
03:00 10.9 10.2 95 LegendMM LegendMM   98.99     LegendNANA
04:00 11.3 10.5 95 LegendMM LegendMM   98.81     LegendNANA
05:00 11.5 10.8 96 LegendMM LegendMM   98.93     LegendNANA
06:00 10.6 9.7 94 LegendMM LegendMM   99.03     LegendNANA
07:00 9.1 6.3 83 LegendMM LegendMM   99.24     LegendNANA
08:00 9.4 5.2 75 LegendMM LegendMM   99.37     LegendNANA
09:00 9.6 4.9 73 LegendMM LegendMM   99.61     LegendNANA
10:00 10.8 3.9 62 LegendMM LegendMM   99.78     LegendNANA
11:00 11.5 3.4 58 LegendMM LegendMM   99.92     LegendNANA
12:00 12.0 2.5 52 LegendMM LegendMM   100.02     LegendNANA
13:00 12.0 2.4 52 LegendMM LegendMM   100.14     LegendNANA
14:00 12.5 1.5 47 LegendMM LegendMM   100.22     LegendNANA
15:00 12.4 1.6 48 LegendMM LegendMM   100.29     LegendNANA
16:00 11.8 1.8 50 LegendMM LegendMM   100.34     LegendNANA
17:00 9.4 4.6 72 LegendMM LegendMM   100.32     LegendNANA
18:00 8.3 4.6 78 LegendMM LegendMM   100.34     LegendNANA
19:00 7.3 5.3 87 LegendMM LegendMM   100.36     LegendNANA
20:00 7.4 5.1 86 LegendMM LegendMM   100.25     LegendNANA
21:00 6.3 4.4 88 LegendMM LegendMM   100.27     LegendNANA
22:00 6.2 4.2 87 LegendMM LegendMM   100.20     LegendNANA
23:00 5.4 4.2 92 LegendMM LegendMM   100.18     LegendNANA

Notes on Data Quality.

Legend

  • E = Estimated
  • M = Missing
  • NA = Not Available
  • ‡ = Partner data that is not subject to review by the National Climate Archives
Date modified: